SAS822 EHAM-ENGM

Flight info

Callsign SAS822
Flight time N/A
Altitude 37000
Route ANDIK Z733 KONOM DCT AMADA DCT PIPEX M609 RIPAM
Aircraft A320/M-SDE3FGHIRWY/LB1

Departure

Time 2026-04-30 13:53
Airport Amsterdam Airport Schiphol (EHAM)

Arrival

Time N/A
Airport Oslo-Gardermoen International Airport (ENGM)
Time Latitude Longitude Altitude Speed Heading
2026-04-30 13:29 52.30444 4.76328 -2 ft 0 kts 239°
2026-04-30 13:41 52.30444 4.76330 -3 ft 2 kts 239°
2026-04-30 13:42 52.30448 4.76341 -3 ft 4 kts 236°
2026-04-30 13:42 52.30466 4.76373 -3 ft 4 kts 208°
2026-04-30 13:42 52.30493 4.76377 -3 ft 0 kts 148°
2026-04-30 13:44 52.30490 4.76380 -3 ft 2 kts 148°
2026-04-30 13:44 52.30473 4.76397 -3 ft 4 kts 148°
2026-04-30 13:45 52.30393 4.76480 -3 ft 9 kts 147°
2026-04-30 13:45 52.30344 4.76536 -3 ft 7 kts 131°
2026-04-30 13:45 52.30339 4.76620 -3 ft 9 kts 77°
2026-04-30 13:46 52.30327 4.76722 -3 ft 11 kts 126°
2026-04-30 13:46 52.30322 4.76838 -3 ft 12 kts 64°
2026-04-30 13:46 52.30368 4.76965 -3 ft 14 kts 56°
2026-04-30 13:46 52.30425 4.77106 -3 ft 16 kts 57°
2026-04-30 13:47 52.30484 4.77261 -3 ft 16 kts 58°
2026-04-30 13:47 52.30548 4.77427 -3 ft 18 kts 58°
2026-04-30 13:47 52.30637 4.77574 -3 ft 19 kts 17°
2026-04-30 13:47 52.30777 4.77600 -3 ft 21 kts
2026-04-30 13:48 52.30931 4.77617 -3 ft 20 kts
2026-04-30 13:48 52.31063 4.77617 -3 ft 19 kts 359°
2026-04-30 13:48 52.31204 4.77628 -3 ft 21 kts
2026-04-30 13:48 52.31357 4.77655 -2 ft 23 kts
2026-04-30 13:49 52.31507 4.77565 -2 ft 25 kts 318°
2026-04-30 13:49 52.31579 4.77337 -3 ft 19 kts 271°
2026-04-30 13:49 52.31569 4.77113 -3 ft 20 kts 266°
2026-04-30 13:49 52.31561 4.76873 -3 ft 22 kts 268°
2026-04-30 13:50 52.31554 4.76615 -2 ft 23 kts 266°
2026-04-30 13:50 52.31534 4.76052 -2 ft 26 kts 266°
2026-04-30 13:50 52.31522 4.75761 -3 ft 27 kts 265°
2026-04-30 13:51 52.31511 4.75458 -3 ft 27 kts 266°
2026-04-30 13:51 52.31500 4.75148 -3 ft 28 kts 266°
2026-04-30 13:51 52.31489 4.74836 -3 ft 18 kts 264°
2026-04-30 13:51 52.31516 4.74668 -2 ft 16 kts 327°
2026-04-30 13:52 52.31625 4.74661 0 ft 16 kts
2026-04-30 13:52 52.31671 4.74750 0 ft 7 kts 89°
2026-04-30 13:52 52.31673 4.74843 -2 ft 33 kts 87°
2026-04-30 13:52 52.31696 4.75596 -5 ft 95 kts 87°
2026-04-30 13:53 52.31741 4.76912 -4 ft 139 kts 86°
2026-04-30 13:53 52.31798 4.78629 328 ft 151 kts 90°
2026-04-30 13:53 52.31857 4.80306 1038 ft 145 kts 89°
2026-04-30 13:53 52.31943 4.81983 1580 ft 152 kts 86°
2026-04-30 13:54 52.32056 4.83780 1993 ft 165 kts 86°
2026-04-30 13:54 52.32188 4.85708 2477 ft 176 kts 85°
2026-04-30 13:54 52.32366 4.87742 2951 ft 187 kts 85°
2026-04-30 13:54 52.32607 4.89948 3320 ft 210 kts 78°
2026-04-30 13:55 52.33340 4.92218 3701 ft 242 kts 61°
2026-04-30 13:55 52.34385 4.94562 4154 ft 265 kts 60°
2026-04-30 13:55 52.35451 4.96953 5125 ft 261 kts 60°
2026-04-30 13:55 52.36522 4.99368 5948 ft 264 kts 60°
2026-04-30 13:56 52.37596 5.01816 6244 ft 265 kts 60°
2026-04-30 13:56 52.38666 5.04269 6339 ft 264 kts 60°
2026-04-30 13:56 52.39733 5.06717 6378 ft 265 kts 60°
2026-04-30 13:56 52.40810 5.09195 7080 ft 268 kts 60°
2026-04-30 13:57 52.42003 5.11566 7916 ft 274 kts 48°
2026-04-30 13:57 52.43580 5.13402 8753 ft 284 kts 32°
2026-04-30 13:57 52.45474 5.14499 9558 ft 293 kts 20°
2026-04-30 13:57 52.47461 5.15350 10354 ft 295 kts 20°
2026-04-30 13:58 52.49478 5.16227 10807 ft 310 kts 20°
2026-04-30 13:58 52.53909 5.18207 11139 ft 353 kts 20°
2026-04-30 13:58 52.56303 5.19283 11652 ft 360 kts 20°
2026-04-30 13:59 52.58741 5.20375 12278 ft 364 kts 19°
2026-04-30 13:59 52.61194 5.21471 12935 ft 367 kts 19°
2026-04-30 13:59 52.63667 5.22577 13597 ft 369 kts 19°
2026-04-30 13:59 52.66160 5.23694 14213 ft 373 kts 19°
2026-04-30 14:00 52.68681 5.24829 14744 ft 377 kts 19°
2026-04-30 14:00 52.73777 5.27131 15847 ft 383 kts 19°
2026-04-30 14:00 52.76357 5.28300 16399 ft 386 kts 19°
2026-04-30 14:01 52.78961 5.29476 16953 ft 389 kts 19°
2026-04-30 14:01 52.81547 5.30644 17514 ft 392 kts 19°
2026-04-30 14:01 52.84191 5.31840 18096 ft 395 kts 19°
2026-04-30 14:01 52.86854 5.33044 18674 ft 398 kts 19°
2026-04-30 14:02 52.89536 5.34259 19187 ft 401 kts 19°
2026-04-30 14:02 52.92244 5.35486 19726 ft 404 kts 19°
2026-04-30 14:02 52.94968 5.36721 20274 ft 406 kts 19°
2026-04-30 14:02 52.97704 5.37968 20799 ft 409 kts 19°
2026-04-30 14:03 53.00422 5.39211 21297 ft 411 kts 19°
2026-04-30 14:03 53.03196 5.40480 21777 ft 414 kts 19°
2026-04-30 14:03 53.05989 5.41757 22249 ft 416 kts 18°
2026-04-30 14:03 53.08797 5.43042 22696 ft 419 kts 18°
2026-04-30 14:04 53.11611 5.44333 23141 ft 421 kts 18°
2026-04-30 14:04 53.14447 5.45637 23563 ft 424 kts 18°
2026-04-30 14:04 53.17299 5.46950 23966 ft 426 kts 18°
2026-04-30 14:04 53.20134 5.48256 24309 ft 429 kts 18°
2026-04-30 14:05 53.23023 5.49588 24669 ft 431 kts 18°
2026-04-30 14:05 53.25916 5.50925 25011 ft 433 kts 18°
2026-04-30 14:05 53.28823 5.52270 25348 ft 435 kts 18°
2026-04-30 14:05 53.31746 5.53623 25673 ft 437 kts 18°
2026-04-30 14:06 53.34683 5.54984 26013 ft 438 kts 18°
2026-04-30 14:06 53.40591 5.57741 26684 ft 442 kts 18°
2026-04-30 14:07 53.46542 5.60521 27344 ft 446 kts 17°
2026-04-30 14:07 53.49543 5.61919 27660 ft 448 kts 17°
2026-04-30 14:07 53.52552 5.63321 28021 ft 449 kts 17°
2026-04-30 14:08 53.58512 5.66116 28924 ft 446 kts 17°
2026-04-30 14:08 53.61502 5.67523 29374 ft 445 kts 18°
2026-04-30 14:08 53.67445 5.70316 30316 ft 442 kts 17°
2026-04-30 14:09 53.70404 5.71703 30745 ft 440 kts 17°
2026-04-30 14:09 53.73354 5.73092 31146 ft 439 kts 18°
2026-04-30 14:09 53.79218 5.75878 32026 ft 435 kts 17°
2026-04-30 14:10 53.82091 5.77245 32460 ft 433 kts 18°
2026-04-30 14:10 53.84982 5.78619 32907 ft 431 kts 17°
2026-04-30 14:10 53.87866 5.79989 33305 ft 430 kts 17°
2026-04-30 14:10 53.90740 5.81360 33749 ft 428 kts 17°
2026-04-30 14:11 53.92646 5.82273 34022 ft 427 kts 16°
2026-04-30 14:11 53.95509 5.83648 34428 ft 426 kts 17°
2026-04-30 14:11 53.98356 5.85010 34803 ft 424 kts 16°
2026-04-30 14:11 54.01200 5.86370 35107 ft 424 kts 17°
2026-04-30 14:12 54.04037 5.87727 35429 ft 423 kts 17°
2026-04-30 14:12 54.06872 5.89088 35691 ft 423 kts 18°
2026-04-30 14:12 54.09700 5.90452 35998 ft 422 kts 17°
2026-04-30 14:12 54.12495 5.91805 36274 ft 422 kts 16°
2026-04-30 14:13 54.15316 5.93174 36529 ft 421 kts 16°
2026-04-30 14:13 54.18138 5.94542 36809 ft 421 kts 16°
2026-04-30 14:13 54.20958 5.95908 37042 ft 421 kts 16°
2026-04-30 14:13 54.23771 5.97271 37308 ft 420 kts 17°
2026-04-30 14:14 54.26595 5.98643 37434 ft 422 kts 17°
2026-04-30 14:14 54.32311 6.01427 37472 ft 431 kts 16°
2026-04-30 14:15 54.38062 6.04231 37459 ft 433 kts 16°
2026-04-30 14:15 54.43871 6.07084 37476 ft 434 kts 16°
2026-04-30 14:16 54.49691 6.09935 37461 ft 434 kts 16°
2026-04-30 14:16 54.55501 6.12789 37477 ft 434 kts 16°
2026-04-30 14:17 54.61317 6.15663 37484 ft 434 kts 16°
2026-04-30 14:17 54.67095 6.18530 37475 ft 435 kts 16°
2026-04-30 14:18 54.72917 6.21428 37487 ft 435 kts 16°
2026-04-30 14:18 54.81657 6.25792 37497 ft 436 kts 16°
2026-04-30 14:19 54.90398 6.30166 37493 ft 436 kts 15°
2026-04-30 14:20 54.96229 6.33094 37492 ft 436 kts 15°
2026-04-30 14:20 55.04920 6.37848 37498 ft 437 kts 19°
2026-04-30 14:21 55.10583 6.41519 37508 ft 437 kts 20°
2026-04-30 14:22 55.19151 6.47099 37504 ft 438 kts 19°
2026-04-30 14:22 55.27756 6.52544 37512 ft 438 kts 19°
2026-04-30 14:23 55.39218 6.59821 37512 ft 439 kts 19°
2026-04-30 14:24 55.47813 6.65366 37516 ft 439 kts 19°
2026-04-30 14:25 55.59299 6.72773 37525 ft 438 kts 19°
2026-04-30 14:26 55.67895 6.78372 37527 ft 438 kts 19°
2026-04-30 14:27 55.76435 6.83931 37516 ft 437 kts 19°
2026-04-30 14:27 55.82150 6.87664 37524 ft 437 kts 19°
2026-04-30 14:28 55.90728 6.93290 37523 ft 437 kts 19°
2026-04-30 14:28 55.96411 6.97033 37523 ft 437 kts 19°
2026-04-30 14:29 56.06880 7.03974 37523 ft 437 kts 19°
2026-04-30 14:31 56.22086 7.14127 37522 ft 438 kts 19°
2026-04-30 14:31 56.30645 7.19876 37526 ft 437 kts 19°
2026-04-30 14:32 56.39166 7.25622 37535 ft 437 kts 19°
2026-04-30 14:33 56.44879 7.29484 37524 ft 437 kts 19°
2026-04-30 14:33 56.53418 7.35307 37522 ft 437 kts 19°
2026-04-30 14:34 56.59103 7.39185 37527 ft 437 kts 19°
2026-04-30 14:34 56.64757 7.43054 37517 ft 436 kts 19°
2026-04-30 14:35 56.73282 7.48931 37513 ft 436 kts 19°
2026-04-30 14:36 56.78964 7.52862 37513 ft 436 kts 19°
2026-04-30 14:36 56.84655 7.56795 37517 ft 437 kts 19°
2026-04-30 14:37 56.90304 7.60716 37516 ft 437 kts 19°
2026-04-30 14:37 56.95985 7.64672 37520 ft 436 kts 19°
2026-04-30 14:38 57.01652 7.68639 37529 ft 436 kts 19°
2026-04-30 14:38 57.07316 7.72624 37514 ft 435 kts 19°
2026-04-30 14:39 57.12972 7.76609 37515 ft 435 kts 19°
2026-04-30 14:39 57.18622 7.80609 37507 ft 434 kts 19°
2026-04-30 14:40 57.27052 7.86578 37499 ft 433 kts 19°
2026-04-30 14:40 57.32677 7.90593 37497 ft 433 kts 19°
2026-04-30 14:41 57.38306 7.94611 37480 ft 433 kts 19°
2026-04-30 14:41 57.43926 7.98649 37486 ft 432 kts 20°
2026-04-30 14:42 57.49500 8.02685 37481 ft 432 kts 19°
2026-04-30 14:42 57.55105 8.06723 37479 ft 431 kts 19°
2026-04-30 14:43 57.60705 8.10761 37463 ft 431 kts 18°
2026-04-30 14:43 57.66262 8.14795 37460 ft 431 kts 20°
2026-04-30 14:44 57.71848 8.18871 37443 ft 431 kts 18°
2026-04-30 14:44 57.77442 8.22964 37429 ft 431 kts 19°
2026-04-30 14:45 57.83033 8.27082 37430 ft 431 kts 20°
2026-04-30 14:45 57.88628 8.31194 37416 ft 431 kts 19°
2026-04-30 14:46 57.94227 8.35326 37419 ft 432 kts 20°
2026-04-30 14:46 57.98876 8.38771 37394 ft 433 kts 19°
2026-04-30 14:47 58.05400 8.43636 37394 ft 433 kts 20°
2026-04-30 14:47 58.11007 8.47826 37390 ft 434 kts 20°
2026-04-30 14:48 58.16621 8.52045 37389 ft 434 kts 20°
2026-04-30 14:48 58.22242 8.56269 37382 ft 435 kts 20°
2026-04-30 14:49 58.27874 8.60500 37380 ft 435 kts 20°
2026-04-30 14:49 58.33508 8.64765 37373 ft 435 kts 20°
2026-04-30 14:50 58.41921 8.71174 37367 ft 436 kts 20°
2026-04-30 14:51 58.50382 8.77638 37392 ft 436 kts 20°
2026-04-30 14:52 58.58836 8.84129 37385 ft 435 kts 20°
2026-04-30 14:52 58.67235 8.90614 37382 ft 434 kts 20°
2026-04-30 14:53 58.75649 8.97137 37373 ft 434 kts 20°
2026-04-30 14:54 58.86557 9.07033 37371 ft 438 kts 36°
2026-04-30 14:55 58.93725 9.18059 37373 ft 438 kts 36°
2026-04-30 14:55 58.98488 9.25379 36971 ft 438 kts 37°
2026-04-30 14:56 59.03258 9.32770 35677 ft 440 kts 36°
2026-04-30 14:56 59.08067 9.40229 34085 ft 445 kts 36°
2026-04-30 14:57 59.10500 9.44012 33223 ft 447 kts 36°
2026-04-30 14:57 59.15350 9.51583 31478 ft 450 kts 36°
2026-04-30 14:58 59.19456 9.57844 29890 ft 451 kts 31°
2026-04-30 14:58 59.22076 9.61204 29239 ft 445 kts 31°
2026-04-30 14:58 59.27849 9.68655 28901 ft 411 kts 31°
2026-04-30 14:59 59.31770 9.73643 28681 ft 389 kts 26°
2026-04-30 15:00 59.39117 9.78507 27873 ft 367 kts 13°
2026-04-30 15:00 59.44003 9.81219 26806 ft 360 kts 13°
2026-04-30 15:01 59.48776 9.83895 25588 ft 352 kts 13°
2026-04-30 15:01 59.51100 9.85198 25122 ft 350 kts 13°
2026-04-30 15:01 59.55783 9.87811 24197 ft 351 kts 13°
2026-04-30 15:02 59.58143 9.89131 23683 ft 352 kts 13°
2026-04-30 15:02 59.60489 9.90451 23281 ft 348 kts 13°
2026-04-30 15:03 59.67412 9.94348 21952 ft 343 kts 13°
2026-04-30 15:03 59.72004 9.96910 21143 ft 339 kts 13°
2026-04-30 15:04 59.76533 9.99450 20306 ft 335 kts 13°
2026-04-30 15:04 59.83169 10.03165 18671 ft 331 kts 13°
2026-04-30 15:05 59.89798 10.06910 17446 ft 326 kts 13°
2026-04-30 15:06 59.94157 10.09391 16676 ft 322 kts 13°
2026-04-30 15:06 59.98393 10.11812 15618 ft 317 kts 13°
2026-04-30 15:07 60.02660 10.14263 14840 ft 317 kts 13°
2026-04-30 15:07 60.06882 10.16697 14142 ft 314 kts 13°
2026-04-30 15:08 60.11053 10.19116 13161 ft 311 kts 13°
2026-04-30 15:08 60.17126 10.22641 11903 ft 299 kts 13°
2026-04-30 15:09 60.21133 10.24951 11249 ft 297 kts 13°
2026-04-30 15:09 60.25062 10.27235 10597 ft 294 kts 13°
2026-04-30 15:10 60.28981 10.29536 9928 ft 292 kts 13°
2026-04-30 15:11 60.36496 10.35143 8882 ft 286 kts 20°
2026-04-30 15:11 60.40110 10.38406 8482 ft 285 kts 20°
2026-04-30 15:12 60.45255 10.43711 8027 ft 271 kts 42°
2026-04-30 15:13 60.46592 10.50594 7753 ft 268 kts 88°
2026-04-30 15:14 60.46615 10.65153 7151 ft 268 kts 88°
2026-04-30 15:14 60.46628 10.76446 6365 ft 265 kts 88°
2026-04-30 15:16 60.46633 10.94767 5585 ft 254 kts 89°
2026-04-30 15:17 60.46042 11.08692 5020 ft 247 kts 118°
2026-04-30 15:18 60.39465 11.18989 4237 ft 238 kts 180°
2026-04-30 15:19 60.34936 11.16910 3371 ft 210 kts 197°